THORAD AGENA D DEB, 4652

Orbit data source: Space-Track

THORAD AGENA D DEB, 4652 is space debris in SSO originally from a launch on Wed, 08 Apr 1970 UTC launched from the Air Force Western Test Range (AFWTR). Debris objects in space refer to the collection of defunct objects orbiting the Earth. Examples of debris include non-operational satellites, rocket bodies, and fragments generated from explosions, collisions, or faulty payload assembly.

Loading next visibility...
Identifier
4652, 1970-025AL
Orbit
SSO
Country
Flag of USUS
Related business
Manufacturer
Unknown
Mission
Spacecraft
Bus & Motor
Unknown
Mass
Unknown
Launch date (UTC)
1970-04-08 (56 years ago)
Launch vehicle
Unknown
Launch site
Air Force Western Test Range (AFWTR)
Object type
Payload
Rocket body
Debris
Shape & HBR
Unknown shape, 0.1 m
Radar Cross Section
Medium (>0.1 m² and <1 m²)

Expand to show TLE details & history
Last TLE update: 7 hours ago

TLE from 7 hours ago
0 THORAD AGENA D DEB
1 04652U 70025AL  26255.96474771  .00000646  00000-0  55323-3 0  9993
2 04652  99.6296  53.5078 0029753 349.6823 137.5537 13.90790679829426
Epoch: 2026-09-12T23:09Z
TLE epoch observation values (Epoch: 2026-09-12T23:09:14.202Z)
Latitude
51.59288°
Longitude
-93.47529°
Altitude
950.178 km
Speed
7.373 km/s
True Right ascension
16h 23m 12s
True Declination
51° 25' 47"
Sunlit
Object was in daylight at epoch
Visualization orbit readout
Latitude
Unknown
Longitude
Unknown
Altitude
Unknown
Speed
Unknown
Apparent Right ascension
Unknown
Apparent Declination
Unknown
Sunlit
N/A
Visualization observer readout
Local Sidereal Time
23:02:06
Azimuth
Unknown
Elevation
Unknown
Doppler factor
Unknown
Orbital elements
Apogee altitude
944.828 km
Perigee altitude
901.381 km
Semi-major axis
7,301.242 km
Eccentricity
0.00298
Inclination
99.6296°
RAAN
53.5078°
Arg. of periapsis
349.6823°
True anomaly
137.78317°
Mean anomaly
137.5537°
Eccentric anomaly
137.6685°
Mean motion
3.47895 °/min
Orbital period
103.48 mins
BSTAR
0.00055323
Loading maneuver chart data...
Computing Atmospheric mass density...

Documentation

Showing up to 5 results
|